This is the latest recevied weather packets stored in our database for station/object W0DXV. If no packets are shown the sender has not sent any weather packets the latest 10 day(s).
| Time | Temp. | Humidity | Pressure | Rain* | Wind** | Luminosity | Snow |
|---|---|---|---|---|---|---|---|
| 1777754834 | 16.67° C | 41% | 1007.4 hPa | 0 mm | - | 73 W/m² | - |
| 1777754532 | 17.22° C | 41% | 1007.4 hPa | 0 mm | - | 121 W/m² | - |
| 1777754229 | 17.22° C | 39% | 1007.7 hPa | 0 mm | - | 472 W/m² | - |
| 1777753926 | 16.67° C | 40% | 1007.4 hPa | 0 mm | - | 553 W/m² | - |
| 1777753620 | 17.22° C | 45% | 1007.9 hPa | 0 mm | - | 351 W/m² | - |
| 1777753319 | 16.67° C | 40% | 1007.6 hPa | 0 mm | - | 514 W/m² | - |
| 1777753016 | 16.11° C | 40% | 1007.8 hPa | 0 mm | - | 488 W/m² | - |
| 1777752713 | 15.56° C | 42% | 1007.9 hPa | 0 mm | - | 569 W/m² | - |
| 1777752408 | 16.11° C | 42% | 1007.9 hPa | 0 mm | - | 561 W/m² | - |
| 1777752105 | 16.67° C | 40% | 1007.9 hPa | 0 mm | - | 534 W/m² | - |
| 1777751803 | 16.11° C | 41% | 1008 hPa | 0 mm | - | 256 W/m² | - |
| 1777751499 | 15.56° C | 42% | 1008.2 hPa | 0 mm | - | 326 W/m² | - |
| 1777751196 | 15° C | 42% | 1008.2 hPa | 0 mm | - | 258 W/m² | - |
| 1777750893 | 15.56° C | 43% | 1008.2 hPa | 0 mm | - | 623 W/m² | - |
| 1777750589 | 15.56° C | 42% | 1008.6 hPa | 0 mm | - | 466 W/m² | - |
| 1777750287 | 15° C | 43% | 1008.6 hPa | 0 mm | - | 455 W/m² | - |
| 1777749982 | 14.44° C | 44% | 1008.9 hPa | 0 mm | - | 452 W/m² | - |
| 1777749679 | 15° C | 43% | 1008.8 hPa | 0 mm | - | 266 W/m² | - |
| 1777749376 | 15.56° C | 42% | 1008.8 hPa | 0 mm | - | 266 W/m² | - |
| 1777749073 | 15° C | 42% | 1008.9 hPa | 0 mm | - | 331 W/m² | - |
| 1777748771 | 16.11° C | 42% | 1008.7 hPa | 0 mm | - | 330 W/m² | - |
| 1777748469 | 15° C | 42% | 1008.9 hPa | 0 mm | - | 405 W/m² | - |
| 1777748163 | 16.11° C | 44% | 1008.8 hPa | 0 mm | - | 806 W/m² | - |
| 1777747860 | 15.56° C | 43% | 1009 hPa | 0 mm | - | 951 W/m² | - |
| 1777747555 | 15° C | 44% | 1008.7 hPa | 0 mm | - | 510 W/m² | - |
* Rain latest hour (hover to see other rain measurements)
** Current wind speed in m/s (hover to see current wind gust speed)